| time (UTC) | temp F | wind direction | speed MPH | gust MPH | rain 1hr in | rain 24hr in | rain mn in | humidity % | barometer mb |
| 20260505183536 | 73 | 221 | 11.0 | 27.0 | 0.00 | 0.00 | 0.00 | 50 | 1004.3 |
| 20260505183050 | 73 | 186 | 14.0 | 27.0 | 0.00 | 0.00 | 0.00 | 52 | 1004.4 |
| 20260505182536 | 73 | 193 | 11.0 | 23.0 | 0.00 | 0.00 | 0.00 | 52 | 1004.4 |
| 20260505182038 | 73 | 153 | 12.0 | 23.0 | 0.00 | 0.00 | 0.00 | 53 | 1004.3 |
| 20260505181544 | 73 | 69 | 8.0 | 18.0 | 0.00 | 0.00 | 0.00 | 53 | 1004.5 |
| 20260505181037 | 73 | 180 | 7.0 | 18.0 | 0.00 | 0.00 | 0.00 | 53 | 1004.6 |
| 20260505180536 | 73 | 159 | 6.0 | 18.0 | 0.00 | 0.00 | 0.00 | 54 | 1004.6 |
| 20260505180105 | 74 | 146 | 8.0 | 14.0 | 0.00 | 0.00 | 0.00 | 51 | 1004.7 |
| 20260505175536 | 74 | 146 | 7.0 | 21.0 | 0.00 | 0.01 | 0.00 | 51 | 1004.7 |
| 20260505175036 | 73 | 112 | 12.0 | 21.0 | 0.00 | 0.01 | 0.00 | 52 | 1004.8 |
| 20260505174559 | 73 | 206 | 11.0 | 23.0 | 0.00 | 0.01 | 0.00 | 52 | 1004.8 |
| 20260505174038 | 72 | 167 | 10.0 | 23.0 | 0.00 | 0.01 | 0.00 | 53 | 1005.0 |
| 20260505173536 | 72 | 124 | 10.0 | 23.0 | 0.00 | 0.01 | 0.00 | 54 | 1004.9 |
| 20260505173046 | 72 | 153 | 7.0 | 19.0 | 0.00 | 0.01 | 0.00 | 53 | 1005.0 |
| 20260505172535 | 72 | 142 | 11.0 | 19.0 | 0.00 | 0.01 | 0.00 | 53 | 1005.2 |
| 20260505172033 | 72 | 198 | 10.0 | 19.0 | 0.00 | 0.01 | 0.00 | 54 | 1005.3 |
| 20260505171551 | 71 | 153 | 7.0 | 19.0 | 0.00 | 0.01 | 0.00 | 53 | 1005.2 |
| 20260505171037 | 71 | 172 | 7.0 | 16.0 | 0.00 | 0.01 | 0.00 | 56 | 1005.3 |
| 20260505170540 | 70 | 196 | 10.0 | 17.0 | 0.00 | 0.01 | 0.00 | 55 | 1005.5 |
| 20260505170049 | 70 | 138 | 11.0 | 18.0 | 0.00 | 0.01 | 0.00 | 54 | 1005.5 |
| 20260505165537 | 70 | 158 | 9.0 | 19.0 | 0.00 | 0.01 | 0.00 | 55 | 1005.7 |
| 20260505165034 | 70 | 181 | 7.0 | 19.0 | 0.00 | 0.01 | 0.00 | 57 | 1005.9 |
| 20260505164552 | 69 | 197 | 7.0 | 15.0 | 0.00 | 0.01 | 0.00 | 57 | 1005.8 |
| 20260505164037 | 69 | 124 | 7.0 | 15.0 | 0.00 | 0.01 | 0.00 | 57 | 1006.2 |
| 20260505163538 | 69 | 123 | 6.0 | 14.0 | 0.00 | 0.01 | 0.00 | 57 | 1006.1 |
| 20260505163049 | 69 | 141 | 6.0 | 13.0 | 0.00 | 0.01 | 0.00 | 58 | 1006.2 |
| 20260505162533 | 68 | 150 | 7.0 | 18.0 | 0.00 | 0.01 | 0.00 | 58 | 1006.3 |
| 20260505162036 | 68 | 144 | 3.0 | 18.0 | 0.00 | 0.01 | 0.00 | 62 | 1006.3 |
| 20260505161551 | 67 | 179 | 7.0 | 18.0 | 0.00 | 0.01 | 0.00 | 59 | 1006.4 |
| 20260505161036 | 67 | 192 | 7.0 | 18.0 | 0.00 | 0.01 | 0.00 | 59 | 1006.5 |
| 20260505160537 | 67 | 140 | 9.0 | 21.0 | 0.00 | 0.01 | 0.00 | 58 | 1006.8 |
| 20260505153043 | 69 | 151 | 11.0 | 18.0 | 0.00 | 0.01 | 0.00 | 54 | 1007.2 |
| 20260505152537 | 68 | 174 | 6.0 | 18.0 | 0.00 | 0.01 | 0.00 | 55 | 1007.3 |
| 20260505152040 | 68 | 175 | 10.0 | 18.0 | 0.00 | 0.01 | 0.00 | 55 | 1007.3 |
| 20260505151546 | 68 | 186 | 9.0 | 18.0 | 0.00 | 0.01 | 0.00 | 55 | 1007.3 |
| 20260505151036 | 67 | 205 | 7.0 | 21.0 | 0.00 | 0.01 | 0.00 | 55 | 1007.3 |
| 20260505150536 | 68 | 174 | 7.0 | 21.0 | 0.00 | 0.01 | 0.00 | 56 | 1007.2 |
| 20260505140536 | 64 | 177 | 7.0 | 17.0 | 0.00 | 0.01 | 0.00 | 58 | 1007.3 |
| 20260505125036 | 58 | 157 | 5.0 | 12.0 | 0.00 | 0.01 | 0.00 | 67 | 1007.6 |
| 20260505124550 | 58 | 188 | 6.0 | 14.0 | 0.00 | 0.01 | 0.00 | 67 | 1007.6 |
| 20260505124037 | 58 | 169 | 7.0 | 15.0 | 0.00 | 0.01 | 0.00 | 67 | 1007.6 |
| 20260505123537 | 58 | 163 | 7.0 | 15.0 | 0.00 | 0.01 | 0.00 | 67 | 1007.7 |
| 20260505123058 | 58 | 198 | 6.0 | 14.0 | 0.00 | 0.01 | 0.00 | 68 | 1007.7 |
| 20260505122536 | 57 | 161 | 6.0 | 14.0 | 0.00 | 0.01 | 0.00 | 68 | 1007.6 |
| 20260505122036 | 57 | 202 | 6.0 | 14.0 | 0.00 | 0.01 | 0.00 | 69 | 1007.8 |
| 20260505121547 | 57 | 160 | 6.0 | 12.0 | 0.00 | 0.01 | 0.00 | 70 | 1007.8 |
| 20260505121036 | 56 | 215 | 6.0 | 11.0 | 0.00 | 0.01 | 0.00 | 70 | 1007.9 |
| 20260505120536 | 56 | 163 | 6.0 | 11.0 | 0.00 | 0.01 | 0.00 | 70 | 1008.0 |
| 20260505120045 | 56 | 196 | 6.0 | 14.0 | 0.00 | 0.01 | 0.00 | 70 | 1007.9 |
| 20260505115536 | 55 | 190 | 6.0 | 16.0 | 0.00 | 0.01 | 0.00 | 71 | 1007.9 |
| 20260505115038 | 55 | 211 | 9.0 | 16.0 | 0.00 | 0.01 | 0.00 | 71 | 1007.9 |
| 20260505114544 | 55 | 192 | 9.0 | 14.0 | 0.00 | 0.01 | 0.00 | 71 | 1007.8 |
| 20260505114037 | 55 | 205 | 6.0 | 13.0 | 0.00 | 0.01 | 0.00 | 72 | 1008.1 |
| 20260505113536 | 54 | 211 | 4.0 | 10.0 | 0.00 | 0.01 | 0.00 | 73 | 1008.1 |
| 20260505113047 | 54 | 198 | 5.0 | 12.0 | 0.00 | 0.01 | 0.00 | 73 | 1008.0 |
| 20260505112536 | 53 | 220 | 5.0 | 12.0 | 0.00 | 0.01 | 0.00 | 74 | 1007.8 |
| 20260505112039 | 53 | 196 | 4.0 | 9.0 | 0.00 | 0.01 | 0.00 | 75 | 1007.7 |
| 20260505111544 | 52 | 167 | 4.0 | 9.0 | 0.00 | 0.01 | 0.00 | 76 | 1007.9 |
| 20260505111036 | 52 | 220 | 3.0 | 9.0 | 0.00 | 0.01 | 0.00 | 76 | 1008.0 |
| 20260505110538 | 51 | 216 | 5.0 | 9.0 | 0.00 | 0.01 | 0.00 | 77 | 1007.9 |
| 20260505102036 | 47 | 234 | 3.0 | 7.0 | 0.00 | 0.01 | 0.00 | 85 | 1007.6 |
| 20260505101601 | 47 | 213 | 1.0 | 3.0 | 0.00 | 0.01 | 0.00 | 86 | 1007.7 |
| 20260505101036 | 46 | 211 | 1.0 | 4.0 | 0.00 | 0.01 | 0.00 | 87 | 1007.5 |
| 20260505100536 | 46 | 211 | 1.0 | 5.0 | 0.00 | 0.01 | 0.00 | 86 | 1007.6 |
| 20260505100101 | 46 | 211 | 2.0 | 5.0 | 0.00 | 0.01 | 0.00 | 86 | 1007.6 |
| 20260505095536 | 46 | 233 | 1.0 | 3.0 | 0.00 | 0.01 | 0.00 | 87 | 1007.6 |
| 20260505095036 | 45 | 0 | 0.0 | 3.0 | 0.00 | 0.01 | 0.00 | 87 | 1007.6 |
| 20260505094549 | 45 | 217 | 0.0 | 2.0 | 0.00 | 0.01 | 0.00 | 88 | 1007.7 |
| 20260505094036 | 45 | 217 | 1.0 | 2.0 | 0.00 | 0.01 | 0.00 | 88 | 1007.7 |
| 20260505093536 | 45 | 0 | 0.0 | 2.0 | 0.00 | 0.01 | 0.00 | 88 | 1007.5 |
| 20260505093059 | 45 | 0 | 0.0 | 3.0 | 0.00 | 0.01 | 0.00 | 88 | 1007.6 |
| 20260505092537 | 45 | 216 | 1.0 | 3.0 | 0.00 | 0.01 | 0.00 | 89 | 1007.5 |
| 20260505092037 | 45 | 216 | 0.0 | 2.0 | 0.00 | 0.01 | 0.00 | 89 | 1007.6 |
| 20260505091551 | 45 | 216 | 0.0 | 2.0 | 0.00 | 0.01 | 0.00 | 89 | 1007.6 |
| 20260505091036 | 45 | 216 | 0.0 | 2.0 | 0.00 | 0.01 | 0.00 | 89 | 1007.6 |
| 20260505090538 | 45 | 0 | 0.0 | 2.0 | 0.00 | 0.01 | 0.00 | 90 | 1007.5 |
| 20260505090049 | 44 | 0 | 0.0 | 3.0 | 0.00 | 0.01 | 0.00 | 91 | 1007.6 |
| 20260505085537 | 44 | 0 | 0.0 | 4.0 | 0.00 | 0.01 | 0.00 | 92 | 1007.6 |
| 20260505085039 | 43 | 216 | 2.0 | 4.0 | 0.00 | 0.01 | 0.00 | 91 | 1007.7 |
| 20260505084548 | 43 | 182 | 1.0 | 4.0 | 0.00 | 0.01 | 0.00 | 91 | 1007.7 |
| 20260505084037 | 43 | 160 | 0.0 | 2.0 | 0.00 | 0.01 | 0.00 | 91 | 1007.7 |
| 20260505083536 | 43 | 160 | 0.0 | 1.0 | 0.00 | 0.01 | 0.00 | 91 | 1007.7 |
| 20260505083048 | 42 | 0 | 0.0 | 1.0 | 0.00 | 0.01 | 0.00 | 91 | 1007.8 |
| 20260505082536 | 42 | 160 | 0.0 | 1.0 | 0.00 | 0.01 | 0.00 | 91 | 1007.7 |
| 20260505082036 | 42 | 0 | 0.0 | 1.0 | 0.00 | 0.01 | 0.00 | 91 | 1007.7 |
| 20260505081558 | 42 | 0 | 0.0 | 1.0 | 0.00 | 0.01 | 0.00 | 91 | 1007.8 |
| 20260505081036 | 42 | 0 | 0.0 | 2.0 | 0.00 | 0.01 | 0.00 | 91 | 1007.7 |
| 20260505080536 | 42 | 0 | 0.0 | 2.0 | 0.00 | 0.01 | 0.00 | 91 | 1007.7 |
| 20260505080059 | 42 | 0 | 0.0 | 2.0 | 0.00 | 0.01 | 0.00 | 90 | 1007.7 |
| 20260505075535 | 42 | 0 | 0.0 | 2.0 | 0.00 | 0.01 | 0.00 | 90 | 1007.8 |
| 20260505075036 | 42 | 160 | 0.0 | 2.0 | 0.00 | 0.01 | 0.00 | 90 | 1007.8 |
| 20260505074549 | 42 | 160 | 0.0 | 5.0 | 0.00 | 0.01 | 0.00 | 90 | 1007.9 |
| 20260505074037 | 42 | 0 | 0.0 | 5.0 | 0.00 | 0.01 | 0.00 | 90 | 1007.8 |
| 20260505073537 | 42 | 0 | 0.0 | 3.0 | 0.00 | 0.01 | 0.00 | 89 | 1007.8 |
| 20260505073043 | 42 | 241 | 0.0 | 2.0 | 0.00 | 0.01 | 0.00 | 89 | 1007.8 |
| 20260505072537 | 42 | 0 | 0.0 | 1.0 | 0.00 | 0.01 | 0.00 | 89 | 1007.8 |
| 20260505072036 | 42 | 0 | 0.0 | 2.0 | 0.00 | 0.01 | 0.00 | 89 | 1007.8 |
| 20260505071552 | 42 | 0 | 0.0 | 2.0 | 0.00 | 0.01 | 0.00 | 88 | 1007.8 |
| 20260505071036 | 43 | 0 | 0.0 | 2.0 | 0.00 | 0.01 | 0.00 | 88 | 1007.8 |
| 20260505070536 | 43 | 0 | 0.0 | 2.0 | 0.00 | 0.01 | 0.00 | 88 | 1007.8 |
| 20260505070047 | 43 | 0 | 0.0 | 1.0 | 0.00 | 0.01 | 0.00 | 87 | 1007.8 |
| 20260505065535 | 43 | 0 | 0.0 | 1.0 | 0.00 | 0.01 | 0.00 | 88 | 1007.7 |
| 20260505065034 | 43 | 0 | 0.0 | 1.0 | 0.00 | 0.01 | 0.00 | 88 | 1007.8 |
| 20260505064545 | 43 | 0 | 0.0 | 0.0 | 0.00 | 0.01 | 0.00 | 88 | 1007.7 |
| 20260505064034 | 43 | 0 | 0.0 | 1.0 | 0.00 | 0.01 | 0.00 | 87 | 1007.7 |
| 20260505063533 | 43 | 0 | 0.0 | 2.0 | 0.00 | 0.01 | 0.00 | 87 | 1007.7 |
| 20260505063049 | 44 | 0 | 0.0 | 2.0 | 0.00 | 0.01 | 0.00 | 87 | 1007.7 |
| 20260505062533 | 44 | 0 | 0.0 | 1.0 | 0.00 | 0.01 | 0.00 | 87 | 1007.7 |
| 20260505062036 | 44 | 0 | 0.0 | 1.0 | 0.00 | 0.01 | 0.00 | 87 | 1007.6 |
| 20260505061553 | 44 | 0 | 0.0 | 2.0 | 0.00 | 0.01 | 0.00 | 86 | 1007.6 |
| 20260505061032 | 44 | 0 | 0.0 | 4.0 | 0.00 | 0.01 | 0.00 | 86 | 1007.7 |
| 20260505060532 | 44 | 219 | 1.0 | 4.0 | 0.00 | 0.01 | 0.00 | 85 | 1007.7 |
| 20260505060049 | 45 | 188 | 1.0 | 3.0 | 0.00 | 0.01 | 0.00 | 85 | 1007.7 |
| 20260505055535 | 45 | 188 | 1.0 | 3.0 | 0.00 | 0.01 | 0.00 | 84 | 1007.7 |
| 20260505055035 | 45 | 188 | 1.0 | 3.0 | 0.00 | 0.01 | 0.00 | 84 | 1007.7 |
| 20260505054548 | 46 | 188 | 1.0 | 3.0 | 0.00 | 0.01 | 0.00 | 83 | 1007.7 |
| 20260505054036 | 46 | 182 | 1.0 | 2.0 | 0.00 | 0.01 | 0.00 | 82 | 1007.7 |
| 20260505053535 | 46 | 253 | 0.0 | 2.0 | 0.00 | 0.01 | 0.00 | 81 | 1007.8 |
| 20260505053048 | 47 | 0 | 0.0 | 2.0 | 0.00 | 0.01 | 0.00 | 81 | 1007.8 |
| 20260505052535 | 48 | 0 | 0.0 | 3.0 | 0.00 | 0.01 | 0.00 | 80 | 1007.7 |
| 20260505052036 | 48 | 253 | 0.0 | 3.0 | 0.00 | 0.01 | 0.00 | 79 | 1007.7 |
| 20260505051546 | 48 | 253 | 0.0 | 4.0 | 0.00 | 0.01 | 0.00 | 78 | 1007.6 |
| 20260505051032 | 49 | 253 | 1.0 | 5.0 | 0.00 | 0.01 | 0.00 | 79 | 1007.6 |
| 20260505050534 | 49 | 202 | 2.0 | 6.0 | 0.00 | 0.01 | 0.00 | 79 | 1007.6 |
| 20260505041542 | 47 | 199 | 3.0 | 6.0 | 0.00 | 0.01 | 0.00 | 85 | 1007.4 |
| 20260505041033 | 46 | 219 | 3.0 | 6.0 | 0.00 | 0.01 | 0.00 | 86 | 1007.4 |
| 20260505040532 | 46 | 214 | 1.0 | 4.0 | 0.00 | 0.01 | 0.00 | 86 | 1007.3 |
| 20260505040044 | 46 | 214 | 2.0 | 4.0 | 0.00 | 0.01 | 0.00 | 86 | 1007.3 |
| 20260505035537 | 46 | 0 | 0.0 | 2.0 | 0.00 | 0.01 | 0.01 | 86 | 1007.3 |
| 20260505035036 | 46 | 0 | 0.0 | 0.0 | 0.00 | 0.01 | 0.01 | 85 | 1007.3 |
| 20260505034551 | 47 | 0 | 0.0 | 0.0 | 0.00 | 0.01 | 0.01 | 85 | 1007.2 |
| 20260505034036 | 47 | 0 | 0.0 | 1.0 | 0.00 | 0.01 | 0.01 | 85 | 1007.2 |
| 20260505033536 | 47 | 0 | 0.0 | 1.0 | 0.00 | 0.01 | 0.01 | 85 | 1007.0 |
| 20260505033051 | 47 | 0 | 0.0 | 1.0 | 0.00 | 0.01 | 0.01 | 85 | 1007.0 |
| 20260505032537 | 47 | 0 | 0.0 | 2.0 | 0.00 | 0.01 | 0.01 | 85 | 1007.0 |
| 20260505032036 | 47 | 0 | 0.0 | 2.0 | 0.00 | 0.01 | 0.01 | 84 | 1007.0 |
| 20260505031552 | 48 | 0 | 0.0 | 5.0 | 0.00 | 0.01 | 0.01 | 84 | 1007.1 |
| 20260505031036 | 48 | 159 | 0.0 | 5.0 | 0.00 | 0.01 | 0.01 | 84 | 1007.1 |
| 20260505030536 | 48 | 159 | 1.0 | 5.0 | 0.00 | 0.01 | 0.01 | 84 | 1007.0 |
| 20260505030050 | 48 | 0 | 1.0 | 4.0 | 0.00 | 0.01 | 0.01 | 84 | 1007.1 |
| 20260505025537 | 48 | 212 | 0.0 | 3.0 | 0.00 | 0.01 | 0.01 | 84 | 1007.0 |
| 20260505025036 | 48 | 0 | 0.0 | 3.0 | 0.00 | 0.01 | 0.01 | 85 | 1007.0 |
| 20260505024549 | 48 | 250 | 0.0 | 2.0 | 0.00 | 0.01 | 0.01 | 86 | 1007.1 |
| 20260505024036 | 48 | 250 | 0.0 | 2.0 | 0.00 | 0.01 | 0.01 | 86 | 1007.2 |
| 20260505023536 | 48 | 250 | 0.0 | 3.0 | 0.00 | 0.01 | 0.01 | 87 | 1007.1 |
| 20260505023051 | 48 | 250 | 1.0 | 3.0 | 0.00 | 0.01 | 0.01 | 87 | 1007.1 |
| 20260505022539 | 48 | 0 | 0.0 | 2.0 | 0.00 | 0.01 | 0.01 | 86 | 1007.1 |
| 20260505022036 | 48 | 0 | 1.0 | 2.0 | 0.00 | 0.01 | 0.01 | 86 | 1007.2 |
| 20260505021549 | 48 | 0 | 0.0 | 0.0 | 0.00 | 0.01 | 0.01 | 85 | 1007.0 |
| 20260505021036 | 48 | 0 | 0.0 | 0.0 | 0.00 | 0.01 | 0.01 | 86 | 1007.0 |
| 20260505020536 | 48 | 0 | 0.0 | 1.0 | 0.00 | 0.01 | 0.01 | 85 | 1007.1 |
| 20260505020048 | 48 | 0 | 0.0 | 1.0 | 0.00 | 0.01 | 0.01 | 85 | 1007.1 |
| 20260505015537 | 48 | 0 | 0.0 | 2.0 | 0.00 | 0.01 | 0.01 | 85 | 1007.0 |
| 20260505015036 | 48 | 0 | 0.0 | 2.0 | 0.00 | 0.01 | 0.01 | 85 | 1007.0 |
| 20260505014555 | 49 | 0 | 0.0 | 1.0 | 0.00 | 0.01 | 0.01 | 84 | 1006.8 |
| 20260505014037 | 49 | 0 | 0.0 | 1.0 | 0.00 | 0.01 | 0.01 | 83 | 1006.7 |
| 20260505013536 | 49 | 0 | 0.0 | 1.0 | 0.00 | 0.01 | 0.01 | 83 | 1006.7 |
| 20260505013047 | 49 | 0 | 0.0 | 1.0 | 0.00 | 0.01 | 0.01 | 83 | 1006.6 |
| 20260505012536 | 49 | 0 | 0.0 | 2.0 | 0.00 | 0.01 | 0.01 | 82 | 1006.7 |
| 20260505012036 | 49 | 0 | 0.0 | 2.0 | 0.00 | 0.01 | 0.01 | 82 | 1006.7 |
| 20260505011554 | 50 | 250 | 0.0 | 2.0 | 0.00 | 0.01 | 0.01 | 82 | 1006.7 |
| 20260505011036 | 50 | 250 | 1.0 | 2.0 | 0.00 | 0.01 | 0.01 | 81 | 1006.6 |
| 20260505010539 | 50 | 0 | 0.0 | 2.0 | 0.00 | 0.01 | 0.01 | 81 | 1006.6 |
| 20260505010109 | 50 | 0 | 0.0 | 2.0 | 0.00 | 0.01 | 0.01 | 81 | 1006.6 |
| 20260505005538 | 50 | 250 | 1.0 | 2.0 | 0.00 | 0.01 | 0.01 | 81 | 1006.6 |
| 20260505005037 | 51 | 0 | 0.0 | 2.0 | 0.00 | 0.01 | 0.01 | 80 | 1006.7 |
| 20260505004544 | 51 | 0 | 0.0 | 2.0 | 0.00 | 0.01 | 0.01 | 79 | 1006.6 |
| 20260505004036 | 51 | 250 | 0.0 | 3.0 | 0.00 | 0.01 | 0.01 | 79 | 1006.6 |
| 20260505003536 | 51 | 250 | 0.0 | 3.0 | 0.00 | 0.01 | 0.01 | 78 | 1006.3 |
| 20260505003049 | 52 | 250 | 1.0 | 2.0 | 0.00 | 0.01 | 0.01 | 79 | 1006.2 |
| 20260505002536 | 52 | 0 | 0.0 | 0.0 | 0.00 | 0.01 | 0.01 | 77 | 1006.1 |
| 20260505002036 | 53 | 0 | 0.0 | 0.0 | 0.00 | 0.01 | 0.01 | 77 | 1006.1 |
| 20260505001545 | 53 | 0 | 0.0 | 2.0 | 0.00 | 0.01 | 0.01 | 76 | 1006.0 |
| 20260505001037 | 53 | 0 | 0.0 | 2.0 | 0.00 | 0.01 | 0.01 | 75 | 1005.9 |
| 20260505000538 | 54 | 0 | 0.0 | 0.0 | 0.00 | 0.01 | 0.01 | 74 | 1005.8 |
| 20260505000050 | 54 | 0 | 0.0 | 2.0 | 0.00 | 0.01 | 0.01 | 74 | 1005.7 |
| 20260504235536 | 55 | 0 | 0.0 | 2.0 | 0.00 | 0.01 | 0.01 | 73 | 1005.6 |
| 20260504235036 | 55 | 0 | 1.0 | 2.0 | 0.00 | 0.01 | 0.01 | 72 | 1005.4 |
| 20260504234543 | 56 | 250 | 0.0 | 2.0 | 0.00 | 0.01 | 0.01 | 71 | 1005.4 |
| 20260504234036 | 57 | 250 | 1.0 | 3.0 | 0.00 | 0.01 | 0.01 | 70 | 1005.2 |
| 20260504233536 | 58 | 0 | 0.0 | 3.0 | 0.00 | 0.01 | 0.01 | 65 | 1005.2 |
| 20260504233041 | 59 | 250 | 1.0 | 3.0 | 0.00 | 0.01 | 0.01 | 61 | 1005.2 |
| 20260504232536 | 60 | 0 | 0.0 | 0.0 | 0.00 | 0.01 | 0.01 | 64 | 1005.2 |
| 20260504232036 | 61 | 0 | 0.0 | 0.0 | 0.00 | 0.01 | 0.01 | 62 | 1005.2 |
| 20260504231548 | 62 | 0 | 0.0 | 0.0 | 0.00 | 0.01 | 0.01 | 58 | 1005.2 |
| 20260504231034 | 63 | 0 | 0.0 | 2.0 | 0.00 | 0.01 | 0.01 | 57 | 1005.2 |
| 20260504230534 | 64 | 0 | 0.0 | 3.0 | 0.00 | 0.01 | 0.01 | 53 | 1005.1 |
| 20260504230049 | 64 | 0 | 1.0 | 3.0 | 0.00 | 0.01 | 0.01 | 51 | 1005.0 |
| 20260504225536 | 64 | 250 | 0.0 | 3.0 | 0.00 | 0.01 | 0.01 | 51 | 1005.0 |
| 20260504225037 | 65 | 250 | 1.0 | 3.0 | 0.00 | 0.01 | 0.01 | 50 | 1005.0 |
| 20260504224546 | 65 | 0 | 1.0 | 3.0 | 0.00 | 0.01 | 0.01 | 46 | 1005.1 |
| 20260504224035 | 65 | 250 | 1.0 | 4.0 | 0.00 | 0.01 | 0.01 | 47 | 1005.1 |
| 20260504223537 | 65 | 250 | 2.0 | 6.0 | 0.00 | 0.01 | 0.01 | 46 | 1005.0 |
| 20260504223100 | 65 | 250 | 2.0 | 6.0 | 0.00 | 0.01 | 0.01 | 48 | 1004.9 |
| 20260504222535 | 65 | 265 | 3.0 | 6.0 | 0.00 | 0.01 | 0.01 | 47 | 1005.0 |
| 20260504222034 | 64 | 213 | 4.0 | 6.0 | 0.00 | 0.01 | 0.01 | 47 | 1005.0 |
| 20260504221601 | 64 | 202 | 2.0 | 5.0 | 0.00 | 0.01 | 0.01 | 49 | 1005.1 |
| 20260504221034 | 64 | 0 | 2.0 | 9.0 | 0.00 | 0.01 | 0.01 | 48 | 1005.1 |
| 20260504220534 | 64 | 190 | 4.0 | 11.0 | 0.00 | 0.01 | 0.01 | 48 | 1005.0 |
| 20260504220055 | 64 | 248 | 3.0 | 11.0 | 0.00 | 0.01 | 0.01 | 48 | 1005.1 |
| 20260504215534 | 64 | 242 | 4.0 | 11.0 | 0.00 | 0.01 | 0.01 | 48 | 1005.1 |
| 20260504215034 | 64 | 236 | 4.0 | 11.0 | 0.00 | 0.01 | 0.01 | 48 | 1005.1 |
| 20260504214554 | 64 | 320 | 4.0 | 11.0 | 0.00 | 0.01 | 0.01 | 49 | 1005.2 |
| 20260504214035 | 64 | 232 | 3.0 | 16.0 | 0.00 | 0.01 | 0.01 | 48 | 1005.2 |
| 20260504213534 | 64 | 260 | 4.0 | 16.0 | 0.00 | 0.01 | 0.01 | 48 | 1005.2 |
| 20260504213100 | 64 | 267 | 7.0 | 16.0 | 0.00 | 0.01 | 0.01 | 48 | 1005.3 |
| 20260504212531 | 64 | 233 | 7.0 | 14.0 | 0.00 | 0.01 | 0.01 | 48 | 1005.2 |
| 20260504212033 | 64 | 253 | 5.0 | 21.0 | 0.00 | 0.01 | 0.01 | 48 | 1005.1 |
| 20260504211548 | 64 | 289 | 6.0 | 21.0 | 0.00 | 0.01 | 0.01 | 47 | 1005.1 |
| 20260504211033 | 64 | 245 | 12.0 | 19.0 | 0.00 | 0.01 | 0.01 | 46 | 1005.2 |
| 20260504210537 | 65 | 279 | 7.0 | 18.0 | 0.00 | 0.01 | 0.01 | 46 | 1005.0 |
| 20260504210047 | 65 | 290 | 8.0 | 18.0 | 0.00 | 0.01 | 0.01 | 46 | 1005.0 |
| 20260504205535 | 64 | 288 | 10.0 | 15.0 | 0.00 | 0.01 | 0.01 | 46 | 1004.9 |
| 20260504205035 | 64 | 303 | 7.0 | 12.0 | 0.00 | 0.01 | 0.01 | 48 | 1005.0 |
| 20260504204550 | 64 | 258 | 5.0 | 17.0 | 0.00 | 0.01 | 0.01 | 49 | 1005.0 |
| 20260504204034 | 64 | 286 | 9.0 | 21.0 | 0.00 | 0.01 | 0.01 | 48 | 1005.1 |
| 20260504203534 | 64 | 229 | 11.0 | 21.0 | 0.00 | 0.01 | 0.01 | 48 | 1005.0 |
| 20260504203048 | 64 | 270 | 8.0 | 19.0 | 0.00 | 0.01 | 0.01 | 49 | 1005.0 |
| 20260504202534 | 64 | 221 | 10.0 | 19.0 | 0.00 | 0.01 | 0.01 | 48 | 1005.1 |
| 20260504202034 | 64 | 257 | 9.0 | 18.0 | 0.00 | 0.01 | 0.01 | 48 | 1005.1 |
| 20260504201544 | 63 | 332 | 8.0 | 18.0 | 0.00 | 0.01 | 0.01 | 49 | 1005.2 |
| 20260504201032 | 63 | 265 | 10.0 | 21.0 | 0.00 | 0.01 | 0.01 | 49 | 1005.1 |
| 20260504200534 | 63 | 255 | 8.0 | 21.0 | 0.00 | 0.01 | 0.01 | 50 | 1005.1 |
| 20260504200044 | 64 | 219 | 12.0 | 21.0 | 0.00 | 0.01 | 0.01 | 49 | 1005.0 |
| 20260504195530 | 63 | 247 | 10.0 | 22.0 | 0.00 | 0.01 | 0.01 | 51 | 1005.1 |
| 20260504195032 | 63 | 266 | 11.0 | 22.0 | 0.00 | 0.01 | 0.01 | 51 | 1005.1 |
| 20260504194546 | 63 | 267 | 11.0 | 21.0 | 0.00 | 0.01 | 0.01 | 54 | 1005.1 |
| 20260504194032 | 63 | 211 | 12.0 | 21.0 | 0.00 | 0.01 | 0.01 | 51 | 1005.2 |
| 20260504193538 | 63 | 175 | 8.0 | 18.0 | 0.00 | 0.01 | 0.01 | 54 | 1005.1 |
| 20260504193043 | 62 | 208 | 6.0 | 18.0 | 0.00 | 0.01 | 0.01 | 56 | 1005.2 |
| 20260504192532 | 61 | 181 | 6.0 | 12.0 | 0.00 | 0.01 | 0.01 | 60 | 1005.3 |
| 20260504192037 | 61 | 188 | 3.0 | 11.0 | 0.00 | 0.01 | 0.01 | 60 | 1005.3 |
| 20260504191542 | 61 | 226 | 5.0 | 11.0 | 0.00 | 0.01 | 0.01 | 61 | 1005.2 |
| 20260504191034 | 61 | 217 | 4.0 | 11.0 | 0.00 | 0.01 | 0.01 | 61 | 1005.3 |
| 20260504190532 | 60 | 236 | 6.0 | 11.0 | 0.00 | 0.01 | 0.01 | 63 | 1005.4 |
| 20260504190048 | 59 | 297 | 5.0 | 11.0 | 0.00 | 0.01 | 0.01 | 65 | 1005.5 |
| 20260504185531 | 58 | 262 | 4.0 | 15.0 | 0.00 | 0.01 | 0.01 | 67 | 1005.6 |
| 20260504185035 | 58 | 210 | 4.0 | 15.0 | 0.00 | 0.01 | 0.01 | 67 | 1005.6 |
| 20260504184544 | 57 | 308 | 6.0 | 13.0 | 0.00 | 0.01 | 0.01 | 67 | 1005.7 |
| 20260504184035 | 57 | 246 | 7.0 | 13.0 | 0.00 | 0.01 | 0.01 | 69 | 1005.8 |